Regional Weather Roundup
Issued by NWS Goodland, KS

Home | Current Version | Previous Version | Graphics & Text | Print | Product List | Glossary On
Versions: 1 2 3 4 5 6 7 8 9 10 11 12 13 14 15 16 17 18 19 20 21 22 23 24 25 26 27 28 29 30 31 32 33 34 35 36 37 38 39 40 41 42 43 44 45 46 47 48 49 50
000
ASUS43 KGLD 300159
RWRGLD

GOODLAND FORECAST AREA HOURLY WEATHER ROUNDUP
NATIONAL WEATHER SERVICE GOODLAND KS
800 PM MDT MON JUN 29 2015

...OFFICIAL OBSERVATIONS...

CITY           SKY/WX    TMP DP  RH WIND       PRES   REMARKS
GOODLAND KS    CLEAR     79  54  41 S9        30.09R
HILL CITY KS   PTCLDY    84  55  36 SW8       29.99R
IMPERIAL NEB   CLEAR     81  63  54 SE5       30.04F
MCCOOK NEB     CLEAR     86  58  38 N5        30.00R
AKRON CO       PTCLDY    77  58  51 CALM      30.15S
BURLINGTON CO  CLEAR     76  55  48 S13       30.14R
LIMON CO       PTCLDY    72  60  66 SE5       30.22S
$$

...UNOFFICIAL OBSERVATIONS...

CITY           SKY/WX    TMP DP  RH WIND       PRES   REMARKS
COLBY KS       RAIN      75  63  64 NE16G22   30.07F
GOVE KS          N/A     82  32  16 MISG        N/A
NORTON KS      CLEAR     81  52  36 E3        29.99R
SHARON SPRINGS   N/A     79  59  50 CALM        N/A
KIT CARSON CO    N/A     81  55  40 MISG        N/A
$$



USA.gov is the U.S. government's official web portal to all federal, state and local government web resources and services.